Weather History for New Castle, PA

Change the Weather History Date:

Friday, April 26, 2013

  Actual Average Record
Temperature  
Mean Temperature 42 °F -  
Max Temperature 57 °F 66 °F 90 °F (1942)
Min Temperature 28 °F 37 °F 26 °F (1930)
Degree Days  
Heating Degree Days 22    
Moisture  
Dew Point 30 °F    
Average Humidity 83    
Maximum Humidity 100    
Minimum Humidity 30    
Precipitation  
Precipitation 0.00 in - - ()
Sea Level Pressure  
Sea Level Pressure 30.43 in    
Wind  
Wind Speed 0 mph (North)    
Max Wind Speed 5 mph    
Max Gust Speed -    
Visibility 4 miles    
Events Fog    
Averages and records for this station are not official NWS values.
T = Trace of Precipitation, MM = Missing Value Source: NWS Daily Summary

Daily Weather History Graph

Daily Weather History Graph

Search for Another Location

Airport:

Trip Planner

Search our weather history database for the weather conditions in past years. The results will help you decide how hot, cold, wet, or windy it might be!

Date:

Astronomy

Apr. 26, 2013 Rise Set
Actual Time 6:26 AM EDT 8:13 PM EDT
Civil Twilight 5:56 AM EDT 8:42 PM EDT
Nautical Twilight 5:20 AM EDT 9:18 PM EDT
Astronomical Twilight 4:42 AM EDT 9:57 PM EDT
Moon 9:35 PM EDT (4/26) 6:51 AM EDT (4/26)
Length of Visible Light 14h 46m
Length of Day
13h 47m
Full, 99% of the Moon is Illuminated
Apr 26
Full
May 2
Last Quarter
May 9
New
May 18
First Quarter
May 25
Full

Hourly Weather History & Observations

Time (EDT) Temp. Windchill Dew Point Humidity Pressure Visibility Wind Dir Wind Speed Gust Speed Precip Events Conditions
12:56 AM 36.9 °F - 36.0 °F 97% 30.43 in 8.0 mi Calm Calm - N/A   Clear
1:21 AM 35.6 °F - 33.8 °F 93% 30.36 in 2.5 mi Calm Calm - N/A   Clear
1:30 AM 33.8 °F - 32.0 °F 93% 30.36 in 3.0 mi Calm Calm - N/A   Clear
1:36 AM 33.8 °F - 32.0 °F 93% 30.36 in 1.8 mi Calm Calm - N/A   Clear
1:56 AM 32.9 °F - 32.0 °F 96% 30.44 in 1.2 mi Calm Calm - N/A   Clear
2:00 AM 33.8 °F - 32.0 °F 93% 30.37 in 0.8 mi Calm Calm - N/A   Clear
2:06 AM 33.8 °F - 32.0 °F 93% 30.37 in 0.2 mi Calm Calm - N/A Fog Fog
2:32 AM 30.2 °F - 30.2 °F 100% 30.37 in 0.8 mi Calm Calm - N/A   Clear
2:34 AM 30.2 °F - 30.2 °F 100% 30.37 in 1.2 mi Calm Calm - N/A   Clear
2:41 AM 30.2 °F - 30.2 °F 100% 30.38 in 1.5 mi Calm Calm - N/A   Clear
2:44 AM 30.2 °F - 30.2 °F 100% 30.38 in 0.8 mi Calm Calm - N/A   Clear
2:56 AM 31.1 °F - 31.1 °F 100% 30.44 in 0.5 mi Calm Calm - N/A Fog Light Freezing Fog
3:09 AM 30.2 °F - 30.2 °F 100% 30.38 in 1.0 mi Calm Calm - N/A   Clear
3:13 AM 30.2 °F - 30.2 °F 100% 30.38 in 1.5 mi Calm Calm - N/A   Clear
3:30 AM 30.2 °F - 30.2 °F 100% 30.38 in 1.2 mi Calm Calm - N/A   Clear
3:37 AM 32.0 °F - 32.0 °F 100% 30.38 in 2.0 mi Calm Calm - N/A   Clear
3:56 AM 32.0 °F - 32.0 °F 100% 30.45 in 1.5 mi Calm Calm - N/A   Clear
3:59 AM 30.2 °F - 30.2 °F 100% 30.39 in 1.0 mi Calm Calm - N/A   Clear
4:03 AM 30.2 °F - 30.2 °F 100% 30.39 in 0.5 mi Calm Calm - N/A Fog Light Freezing Fog
4:11 AM 30.2 °F - 30.2 °F 100% 30.40 in 0.2 mi Calm Calm - N/A Fog Light Freezing Fog
4:32 AM 28.4 °F - 28.4 °F 100% 30.40 in 0.2 mi Calm Calm - N/A Fog Light Freezing Fog
4:56 AM 28.4 °F - 28.4 °F 100% 30.40 in 0.2 mi Calm Calm - N/A Fog Light Freezing Fog
5:11 AM 28.4 °F - 28.4 °F 100% 30.40 in 1.0 mi Calm Calm - N/A   Mist
5:13 AM 28.4 °F - 28.4 °F 100% 30.41 in 1.8 mi Calm Calm - N/A   Mostly Cloudy
5:20 AM 28.4 °F - 28.4 °F 100% 30.41 in 2.5 mi Calm Calm - N/A   Clear
5:31 AM 28.4 °F - 28.4 °F 100% 30.41 in 1.2 mi Calm Calm - N/A   Mostly Cloudy
5:35 AM 28.4 °F - 28.4 °F 100% 30.41 in 0.8 mi Calm Calm - N/A   Mist
5:37 AM 28.4 °F - 28.4 °F 100% 30.41 in 0.2 mi Calm Calm - N/A Fog Light Freezing Fog
5:46 AM 28.4 °F - 28.4 °F 100% 30.41 in 0.2 mi Calm Calm - N/A Fog Light Freezing Fog
5:56 AM 28.0 °F - 28.0 °F 100% 30.49 in 0.2 mi Calm Calm - N/A Fog Light Freezing Fog
6:14 AM 28.4 °F - 28.4 °F 100% 30.42 in 0.5 mi Calm Calm - N/A Fog Light Freezing Fog
6:23 AM 28.4 °F - 28.4 °F 100% 30.42 in 0.2 mi Calm Calm - N/A Fog Light Freezing Fog
6:32 AM 28.4 °F - 28.4 °F 100% 30.43 in 0.2 mi Calm Calm - N/A Fog Light Freezing Fog
7:56 AM 30.2 °F - 30.2 °F 100% 30.46 in 0.2 mi Calm Calm - N/A Fog Light Freezing Fog
8:56 AM 36.9 °F - 36.9 °F 100% 30.56 in 0.2 mi Calm Calm - N/A Fog Fog
9:04 AM 37.4 °F - 37.4 °F 100% 30.48 in 1.5 mi Calm Calm - N/A   Mostly Cloudy
9:09 AM 37.4 °F - 37.4 °F 100% 30.48 in 3.0 mi Calm Calm - N/A   Scattered Clouds
9:56 AM 43.0 °F 40.3 °F 41.9 °F 96% 30.55 in 10.0 mi Variable 4.6 mph - N/A   Clear
10:56 AM 48.9 °F - 29.1 °F 46% 30.56 in 10.0 mi Variable 4.6 mph - N/A   Partly Cloudy
11:56 AM 50.9 °F - 27.1 °F 40% 30.55 in 10.0 mi Variable 3.5 mph - N/A   Clear
12:56 PM 54.0 °F - 26.1 °F 34% 30.54 in 10.0 mi Calm Calm - N/A   Clear
1:56 PM 54.9 °F - 25.2 °F 32% 30.53 in 10.0 mi Calm Calm - N/A   Partly Cloudy
2:56 PM 55.9 °F - 25.2 °F 31% 30.52 in 10.0 mi Calm Calm - N/A   Partly Cloudy
3:56 PM 54.9 °F - 26.1 °F 33% 30.50 in 10.0 mi Calm Calm - N/A   Clear
4:56 PM 57.2 °F - 26.6 °F 31% 30.41 in 10.0 mi Variable 3.5 mph - N/A   Clear
5:56 PM 55.9 °F - 26.1 °F 32% 30.46 in 10.0 mi Calm Calm - N/A   Clear
6:56 PM 56.8 °F - 25.2 °F 30% 30.46 in 10.0 mi Calm Calm - N/A   Clear
7:56 PM 55.4 °F - 28.4 °F 36% 30.39 in 10.0 mi Calm Calm - N/A   Clear
8:56 PM 50.9 °F - 25.2 °F 37% 30.47 in 10.0 mi Calm Calm - N/A   Clear
9:56 PM 46.9 °F - 28.0 °F 48% 30.48 in 10.0 mi Calm Calm - N/A   Clear
10:56 PM 44.6 °F - 28.4 °F 53% 30.41 in 10.0 mi Calm Calm - N/A   Clear
11:56 PM 41.9 °F - 30.0 °F 63% 30.47 in 10.0 mi Calm Calm - N/A   Clear